Weather History for Fort Yukon, AK

Change the Weather History Date:

Monday, January 7, 2013

  Actual Average Record
Temperature  
Mean Temperature 6 °F -  
Max Temperature 10 °F -11 °F 30 °F (2005)
Min Temperature 3 °F -23 °F -59 °F (1997)
Degree Days  
Heating Degree Days 58    
Moisture  
Dew Point 1 °F    
Average Humidity 76    
Maximum Humidity 92    
Minimum Humidity 60    
Precipitation  
Precipitation 0.00 in - - ()
Sea Level Pressure  
Sea Level Pressure 29.46 in    
Wind  
Wind Speed 9 mph (NE)    
Max Wind Speed 13 mph    
Max Gust Speed 16 mph    
Visibility 10 miles    
Events      
Averages and records for this station are not official NWS values.
T = Trace of Precipitation, MM = Missing Value Source: NWS Daily Summary

Daily Weather History Graph

Daily Weather History Graph

Search for Another Location

Airport:

Trip Planner

Search our weather history database for the weather conditions in past years. The results will help you decide how hot, cold, wet, or windy it might be!

Date:

Astronomy

Jan. 07, 2013 Rise Set
Actual Time 11:06 AM AKST 2:28 PM AKST
Civil Twilight 9:33 AM AKST 4:02 PM AKST
Nautical Twilight 8:16 AM AKST 5:18 PM AKST
Astronomical Twilight 7:11 AM AKST 6:23 PM AKST
Moon 5:56 AM AKST (1/7) 11:26 AM AKST (1/7)
Length of Visible Light 6h 29m
Length of Day
3h 21m
Waning Crescent, 21% of the Moon is Illuminated
Jan 7
Waning Crescent
Jan 11
New
Jan 18
First Quarter
Jan 26
Full
Feb 3
Last Quarter

Hourly Weather History & Observations

Time (AKST) Temp. Windchill Dew Point Humidity Pressure Visibility Wind Dir Wind Speed Gust Speed Precip Events Conditions
12:16 AM 5.0 °F -10.0 °F -0.4 °F 78% 29.45 in 10.0 mi NE 10.4 mph - N/A   Overcast
12:36 AM 5.0 °F -10.8 °F -2.2 °F 72% 29.45 in 7.0 mi NE 11.5 mph - N/A   Overcast
12:56 AM 5.0 °F -10.0 °F -0.4 °F 78% 29.45 in 4.0 mi NE 10.4 mph - N/A   Overcast
1:16 AM 5.0 °F -9.1 °F -0.4 °F 78% 29.44 in 9.0 mi NE 9.2 mph - N/A   Overcast
1:36 AM 5.0 °F -9.1 °F -0.4 °F 78% 29.44 in 10.0 mi ENE 9.2 mph 16.1 mph N/A   Overcast
1:56 AM 5.0 °F -10.0 °F -0.4 °F 78% 29.44 in 10.0 mi ENE 10.4 mph - N/A   Mostly Cloudy
2:16 AM 5.0 °F -8.1 °F -0.4 °F 78% 29.44 in 10.0 mi NE 8.1 mph - N/A   Overcast
2:36 AM 5.0 °F -10.8 °F 1.4 °F 85% 29.43 in 10.0 mi NE 11.5 mph - N/A   Overcast
2:56 AM 6.8 °F -9.3 °F -0.4 °F 72% 29.42 in 10.0 mi NE 12.7 mph - N/A   Overcast
3:16 AM 5.0 °F -10.0 °F -0.4 °F 78% 29.42 in 5.0 mi NE 10.4 mph - N/A   Overcast
3:36 AM 5.0 °F -9.1 °F -0.4 °F 78% 29.41 in 7.0 mi NE 9.2 mph - N/A   Overcast
3:56 AM 5.0 °F -10.8 °F -0.4 °F 78% 29.41 in 8.0 mi NE 11.5 mph - N/A   Overcast
4:16 AM 5.0 °F -9.1 °F 1.4 °F 85% 29.42 in 5.0 mi ENE 9.2 mph - N/A   Overcast
4:36 AM 5.0 °F -10.0 °F -0.4 °F 78% 29.42 in 8.0 mi NE 10.4 mph - N/A   Scattered Clouds
4:56 AM 5.0 °F -8.1 °F -0.4 °F 78% 29.42 in 10.0 mi ENE 8.1 mph - N/A   Mostly Cloudy
5:16 AM 5.0 °F -10.0 °F -0.4 °F 78% 29.41 in 10.0 mi NE 10.4 mph - N/A   Overcast
5:36 AM 5.0 °F -9.1 °F -0.4 °F 78% 29.41 in 10.0 mi NE 9.2 mph 16.1 mph N/A   Overcast
5:56 AM 5.0 °F -9.1 °F -0.4 °F 78% 29.40 in 10.0 mi NE 9.2 mph - N/A   Mostly Cloudy
6:16 AM 5.0 °F -10.0 °F -0.4 °F 78% 29.40 in 10.0 mi NE 10.4 mph - N/A   Clear
6:36 AM 5.0 °F -10.8 °F -0.4 °F 78% 29.40 in 10.0 mi NE 11.5 mph - N/A   Clear
6:56 AM 5.0 °F -8.1 °F -0.4 °F 78% 29.40 in 10.0 mi ENE 8.1 mph - N/A   Partly Cloudy
7:16 AM 5.0 °F -9.1 °F -0.4 °F 78% 29.40 in 10.0 mi ENE 9.2 mph - N/A   Mostly Cloudy
7:36 AM 5.0 °F -9.1 °F -0.4 °F 78% 29.40 in 10.0 mi ENE 9.2 mph - N/A   Scattered Clouds
7:56 AM 5.0 °F -8.1 °F -0.4 °F 78% 29.40 in 10.0 mi ENE 8.1 mph - N/A   Clear
8:16 AM 5.0 °F -8.1 °F -0.4 °F 78% 29.40 in 10.0 mi ENE 8.1 mph - N/A   Clear
8:36 AM 5.0 °F -5.6 °F -0.4 °F 78% 29.41 in 10.0 mi ENE 5.8 mph - N/A   Clear
8:56 AM 3.2 °F -7.8 °F -2.2 °F 78% 29.41 in 10.0 mi NE 5.8 mph - N/A   Mostly Cloudy
9:16 AM 3.2 °F -6.2 °F 1.4 °F 92% 29.41 in 10.0 mi NE 4.6 mph - N/A   Mostly Cloudy
9:36 AM 6.8 °F -2.0 °F 1.4 °F 79% 29.42 in 10.0 mi ENE 4.6 mph - N/A   Mostly Cloudy
9:56 AM 6.8 °F -0.1 °F 1.4 °F 79% 29.42 in 10.0 mi ENE 3.5 mph - N/A   Mostly Cloudy
10:16 AM 6.8 °F -4.8 °F 3.2 °F 85% 29.42 in 10.0 mi NE 6.9 mph - N/A   Mostly Cloudy
10:36 AM 6.8 °F -4.8 °F 3.2 °F 85% 29.42 in 10.0 mi NE 6.9 mph - N/A   Mostly Cloudy
10:56 AM 6.8 °F -4.8 °F 3.2 °F 85% 29.42 in 10.0 mi NE 6.9 mph - N/A   Overcast
11:16 AM 8.6 °F -3.7 °F 3.2 °F 79% 29.42 in 10.0 mi NE 8.1 mph - N/A   Overcast
11:36 AM 8.6 °F -4.7 °F 3.2 °F 79% 29.43 in 10.0 mi NE 9.2 mph - N/A   Overcast
11:56 AM 8.6 °F -3.7 °F 3.2 °F 79% 29.43 in 10.0 mi ENE 8.1 mph - N/A   Overcast
12:16 PM 8.6 °F -3.7 °F 1.4 °F 73% 29.44 in 10.0 mi ENE 8.1 mph - N/A   Overcast
12:36 PM 8.6 °F -5.5 °F 1.4 °F 73% 29.44 in 10.0 mi NE 10.4 mph - N/A   Overcast
12:56 PM 8.6 °F -5.5 °F 3.2 °F 79% 29.44 in 10.0 mi ENE 10.4 mph - N/A   Overcast
1:16 PM 10.4 °F -0.4 °F 3.2 °F 73% 29.44 in 10.0 mi ENE 6.9 mph - N/A   Overcast
1:36 PM 10.4 °F 0.8 °F 3.2 °F 73% 29.45 in 10.0 mi ENE 5.8 mph - N/A   Overcast
1:56 PM 10.4 °F 0.8 °F 3.2 °F 73% 29.45 in 10.0 mi ENE 5.8 mph - N/A   Overcast
2:16 PM 10.4 °F -1.5 °F 3.2 °F 73% 29.46 in 10.0 mi ENE 8.1 mph - N/A   Overcast
2:36 PM 10.4 °F -1.5 °F 3.2 °F 73% 29.46 in 10.0 mi ENE 8.1 mph - N/A   Overcast
2:56 PM 10.4 °F -3.3 °F 3.2 °F 73% 29.46 in 10.0 mi NE 10.4 mph - N/A   Overcast
3:16 PM 10.4 °F -3.3 °F 3.2 °F 73% 29.46 in 10.0 mi ENE 10.4 mph - N/A   Overcast
3:36 PM 10.4 °F -0.4 °F 1.4 °F 67% 29.46 in 10.0 mi ENE 6.9 mph - N/A   Mostly Cloudy
3:56 PM 8.6 °F -2.6 °F 3.2 °F 79% 29.46 in 10.0 mi NE 6.9 mph - N/A   Scattered Clouds
4:16 PM 8.6 °F -2.6 °F 3.2 °F 79% 29.47 in 10.0 mi ENE 6.9 mph - N/A   Scattered Clouds
4:36 PM 8.6 °F -1.3 °F 1.4 °F 73% 29.47 in 10.0 mi NE 5.8 mph - N/A   Scattered Clouds
4:56 PM 8.6 °F -2.6 °F 1.4 °F 73% 29.48 in 10.0 mi NE 6.9 mph - N/A   Mostly Cloudy
5:16 PM 8.6 °F -3.7 °F 3.2 °F 79% 29.48 in 10.0 mi NE 8.1 mph - N/A   Mostly Cloudy
5:36 PM 8.6 °F -3.7 °F 1.4 °F 73% 29.48 in 10.0 mi NE 8.1 mph - N/A   Overcast
5:56 PM 8.6 °F -5.5 °F 1.4 °F 73% 29.49 in 10.0 mi NE 10.4 mph - N/A   Overcast
6:16 PM 8.6 °F -6.3 °F 1.4 °F 73% 29.49 in 10.0 mi NE 11.5 mph - N/A   Overcast
6:56 PM 8.6 °F -5.5 °F -0.4 °F 67% 29.49 in 10.0 mi NE 10.4 mph - N/A   Overcast
7:16 PM 6.8 °F -6.9 °F -0.4 °F 72% 29.49 in 10.0 mi NE 9.2 mph - N/A   Overcast
7:36 PM 6.8 °F -6.9 °F -0.4 °F 72% 29.50 in 10.0 mi NE 9.2 mph - N/A   Overcast
7:56 PM 6.8 °F -5.9 °F -0.4 °F 72% 29.51 in 10.0 mi NE 8.1 mph - N/A   Overcast
8:16 PM 6.8 °F -6.9 °F -0.4 °F 72% 29.52 in 10.0 mi NE 9.2 mph - N/A   Overcast
8:36 PM 6.8 °F -5.9 °F -0.4 °F 72% 29.52 in 10.0 mi NE 8.1 mph - N/A   Overcast
8:56 PM 6.8 °F -4.8 °F -0.4 °F 72% 29.53 in 10.0 mi NE 6.9 mph - N/A   Overcast
9:16 PM 5.0 °F -8.1 °F -0.4 °F 78% 29.54 in 10.0 mi NE 8.1 mph - N/A   Overcast
9:36 PM 6.8 °F -3.5 °F -0.4 °F 72% 29.54 in 10.0 mi NE 5.8 mph - N/A   Overcast
9:56 PM 6.8 °F -4.8 °F -2.2 °F 67% 29.55 in 10.0 mi NE 6.9 mph - N/A   Overcast
10:16 PM 6.8 °F -5.9 °F -0.4 °F 72% 29.55 in 10.0 mi NE 8.1 mph - N/A   Overcast
10:36 PM 6.8 °F -7.8 °F -0.4 °F 72% 29.55 in 10.0 mi NE 10.4 mph - N/A   Overcast
10:56 PM 6.8 °F -4.8 °F -0.4 °F 72% 29.56 in 10.0 mi NE 6.9 mph - N/A   Overcast
11:16 PM 6.8 °F -3.5 °F -0.4 °F 72% 29.56 in 10.0 mi NE 5.8 mph - N/A   Overcast
11:36 PM 6.8 °F -4.8 °F -0.4 °F 72% 29.57 in 10.0 mi NE 6.9 mph - N/A   Overcast
11:56 PM 6.8 °F -5.9 °F -0.4 °F 72% 29.58 in 10.0 mi NE 8.1 mph - N/A   Overcast